Weather History for KELO - March, 2013

Change the Weather History Date:

Friday, March 8, 2013

  Actual Average Record
Temperature  
Mean Temperature 19 °F -  
Max Temperature 30 °F 26 °F 39 °F (2006)
Min Temperature 8 °F 5 °F -20 °F (2005)
Degree Days  
Heating Degree Days 46    
Moisture  
Dew Point 18 °F    
Average Humidity 83    
Maximum Humidity 100    
Minimum Humidity 69    
Precipitation  
Precipitation 0.00 in - - ()
Sea Level Pressure  
Sea Level Pressure 30.20 in    
Wind  
Wind Speed 3 mph (SSW)    
Max Wind Speed 12 mph    
Max Gust Speed -    
Visibility 8 miles    
Events      
Averages and records for this station are not official NWS values.
T = Trace of Precipitation, MM = Missing Value Source: NWS Daily Summary

Daily Weather History Graph

Daily Weather History Graph

Search for Another Location

Airport or City:

Trip Planner

Search our weather history database for the weather conditions in past years. The results will help you decide how hot, cold, wet, or windy it might be!

Date:

Astronomy

Mar. 08, 2013 Rise Set
Actual Time 6:33 AM CST 6:02 PM CST
Civil Twilight 6:03 AM CST 6:33 PM CST
Nautical Twilight 5:27 AM CST 7:09 PM CST
Astronomical Twilight 4:51 AM CST 7:46 PM CST
Moon 4:30 AM CST (3/8) 2:47 PM CST (3/8)
Length of Visible Light 12h 30m
Length of Day
11h 29m
Waning Crescent, 11% of the Moon is Illuminated
Mar 8
Waning Crescent
Mar 11
New
Mar 19
First Quarter
Mar 27
Full
Apr 2
Last Quarter

Hourly Weather History & Observations

Time (CST) Temp. Windchill Dew Point Humidity Pressure Visibility Wind Dir Wind Speed Gust Speed Precip Events Conditions
12:12 AM 14.0 °F - 12.2 °F 93% 30.29 in 10.0 mi Calm Calm - N/A   Mostly Cloudy
12:33 AM 15.8 °F - 12.2 °F 86% 30.29 in 10.0 mi Calm Calm - N/A   Mostly Cloudy
12:53 AM 14.0 °F - 12.2 °F 93% 30.30 in 10.0 mi Calm Calm - N/A   Mostly Cloudy
1:12 AM 14.0 °F - 12.2 °F 93% 30.29 in 10.0 mi Calm Calm - N/A   Scattered Clouds
1:33 AM 12.2 °F 6.1 °F 10.4 °F 92% 30.30 in 10.0 mi SE 3.5 mph - N/A   Scattered Clouds
1:53 AM 14.0 °F 8.2 °F 12.2 °F 93% 30.29 in 10.0 mi SE 3.5 mph - N/A   Scattered Clouds
2:12 AM 15.8 °F - 12.2 °F 86% 30.29 in 10.0 mi Calm Calm - N/A   Scattered Clouds
2:33 AM 15.8 °F - 14.0 °F 93% 30.28 in 10.0 mi Calm Calm - N/A   Scattered Clouds
2:53 AM 15.8 °F - 14.0 °F 93% 30.27 in 10.0 mi Calm Calm - N/A   Scattered Clouds
3:12 AM 15.8 °F - 14.0 °F 93% 30.26 in 10.0 mi Calm Calm - N/A   Mostly Cloudy
3:33 AM 15.8 °F 10.2 °F 14.0 °F 93% 30.25 in 10.0 mi ENE 3.5 mph - N/A   Scattered Clouds
3:53 AM 12.2 °F - 10.4 °F 92% 30.25 in 10.0 mi Calm Calm - N/A   Clear
4:12 AM 10.4 °F - 10.4 °F 100% 30.24 in 10.0 mi Calm Calm - N/A   Clear
4:32 AM 8.6 °F - 8.6 °F 100% 30.24 in 10.0 mi Calm Calm - N/A   Clear
4:53 AM 10.4 °F - 8.6 °F 92% 30.24 in 10.0 mi Calm Calm - N/A   Clear
5:13 AM 10.4 °F 2.2 °F 8.6 °F 92% 30.23 in 10.0 mi SSE 4.6 mph - N/A   Clear
5:32 AM 15.8 °F 10.2 °F 15.8 °F 100% 30.23 in 10.0 mi SSE 3.5 mph - N/A   Clear
5:53 AM 10.4 °F - 8.6 °F 92% 30.23 in 10.0 mi Calm Calm - N/A   Clear
6:12 AM 15.8 °F 10.2 °F 14.0 °F 93% 30.23 in 10.0 mi South 3.5 mph - N/A   Clear
6:32 AM 17.6 °F 10.7 °F 15.8 °F 93% 30.23 in 10.0 mi South 4.6 mph - N/A   Clear
6:53 AM 17.6 °F 9.3 °F 15.8 °F 93% 30.23 in 10.0 mi South 5.8 mph - N/A   Clear
7:12 AM 19.4 °F 12.8 °F 15.8 °F 86% 30.23 in 10.0 mi South 4.6 mph - N/A   Clear
7:33 AM 19.4 °F 9.5 °F 15.8 °F 86% 30.23 in 10.0 mi South 8.1 mph - N/A   Clear
7:53 AM 21.2 °F 11.7 °F 17.6 °F 86% 30.23 in 10.0 mi South 8.1 mph - N/A   Mostly Cloudy
8:12 AM 21.2 °F 11.7 °F 17.6 °F 86% 30.23 in 10.0 mi South 8.1 mph - N/A   Mostly Cloudy
8:33 AM 21.2 °F 9.5 °F 17.6 °F 86% 30.22 in 10.0 mi South 11.5 mph - N/A   Scattered Clouds
8:53 AM 23.0 °F 13.9 °F 17.6 °F 80% 30.22 in 10.0 mi SSW 8.1 mph - N/A   Scattered Clouds
9:12 AM 23.0 °F 14.7 °F 17.6 °F 80% 30.22 in 10.0 mi SSW 6.9 mph - N/A   Scattered Clouds
9:33 AM 23.0 °F 13.9 °F 17.6 °F 80% 30.22 in 10.0 mi SW 8.1 mph - N/A   Scattered Clouds
9:53 AM 23.0 °F 13.9 °F 17.6 °F 80% 30.21 in 10.0 mi SSW 8.1 mph - N/A   Mostly Cloudy
10:12 AM 24.8 °F 16.1 °F 17.6 °F 74% 30.21 in 10.0 mi SW 8.1 mph - N/A   Mostly Cloudy
10:33 AM 24.8 °F 17.9 °F 17.6 °F 74% 30.21 in 10.0 mi South 5.8 mph - N/A   Mostly Cloudy
10:53 AM 24.8 °F 17.9 °F 17.6 °F 74% 30.21 in 10.0 mi South 5.8 mph - N/A   Scattered Clouds
11:12 AM 24.8 °F 16.9 °F 17.6 °F 74% 30.21 in 10.0 mi South 6.9 mph - N/A   Mostly Cloudy
11:33 AM 26.6 °F 19.1 °F 19.4 °F 74% 30.21 in 10.0 mi SSW 6.9 mph - N/A   Mostly Cloudy
11:53 AM 26.6 °F 22.6 °F 19.4 °F 74% 30.21 in 10.0 mi SSW 3.5 mph - N/A   Overcast
12:12 PM 26.6 °F 19.1 °F 19.4 °F 74% 30.21 in 10.0 mi SW 6.9 mph - N/A   Overcast
12:33 PM 28.4 °F 23.3 °F 19.4 °F 69% 30.20 in 10.0 mi SSW 4.6 mph - N/A   Overcast
12:53 PM 28.4 °F 22.2 °F 19.4 °F 69% 30.19 in 7.0 mi SW 5.8 mph - N/A   Overcast
1:12 PM 28.4 °F 20.4 °F 19.4 °F 69% 30.19 in 7.0 mi South 8.1 mph - N/A   Overcast
1:33 PM 28.4 °F 24.6 °F 21.2 °F 74% 30.19 in 7.0 mi SSW 3.5 mph - N/A   Overcast
1:53 PM 28.4 °F 22.2 °F 21.2 °F 74% 30.19 in 7.0 mi SSW 5.8 mph - N/A   Overcast
2:12 PM 30.2 °F 26.7 °F 21.2 °F 69% 30.18 in 7.0 mi SW 3.5 mph - N/A   Overcast
2:33 PM 30.2 °F 26.7 °F 21.2 °F 69% 30.18 in 7.0 mi SSW 3.5 mph - N/A   Overcast
2:53 PM 30.2 °F 22.6 °F 21.2 °F 69% 30.18 in 7.0 mi SSW 8.1 mph - N/A   Overcast
3:13 PM 30.2 °F 23.4 °F 21.2 °F 69% 30.18 in 7.0 mi SSW 6.9 mph - N/A   Overcast
3:33 PM 30.2 °F 24.3 °F 23.0 °F 75% 30.18 in 7.0 mi SW 5.8 mph - N/A   Overcast
3:52 PM 30.2 °F 24.3 °F 23.0 °F 75% 30.17 in 7.0 mi SSW 5.8 mph - N/A   Overcast
4:13 PM 30.2 °F 25.4 °F 23.0 °F 75% 30.18 in 7.0 mi SSW 4.6 mph - N/A   Overcast
4:33 PM 30.2 °F 24.3 °F 23.0 °F 75% 30.18 in 7.0 mi WSW 5.8 mph - N/A   Overcast
4:52 PM 30.2 °F 23.4 °F 24.8 °F 80% 30.18 in 7.0 mi SSW 6.9 mph - N/A   Overcast
5:13 PM 30.2 °F 23.4 °F 24.8 °F 80% 30.18 in 7.0 mi SW 6.9 mph - N/A   Overcast
5:33 PM 30.2 °F 25.4 °F 24.8 °F 80% 30.18 in 7.0 mi SW 4.6 mph - N/A   Overcast
5:52 PM 30.2 °F 24.3 °F 24.8 °F 80% 30.18 in 7.0 mi SW 5.8 mph - N/A   Overcast
6:13 PM 30.2 °F 26.7 °F 24.8 °F 80% 30.18 in 7.0 mi SW 3.5 mph - N/A   Overcast
6:33 PM 30.2 °F 25.4 °F 24.8 °F 80% 30.17 in 7.0 mi SW 4.6 mph - N/A   Mostly Cloudy
6:52 PM 30.2 °F - 24.8 °F 80% 30.17 in 7.0 mi Calm Calm - N/A   Clear
7:13 PM 28.4 °F - 24.8 °F 86% 30.17 in 7.0 mi Calm Calm - N/A   Scattered Clouds
7:33 PM 28.4 °F - 23.0 °F 80% 30.16 in 7.0 mi Calm Calm - N/A   Clear
7:52 PM 26.6 °F - 23.0 °F 86% 30.16 in 7.0 mi Calm Calm - N/A   Scattered Clouds
8:13 PM 26.6 °F - 23.0 °F 86% 30.16 in 7.0 mi Calm Calm - N/A   Overcast
8:33 PM 26.6 °F - 21.2 °F 80% 30.16 in 7.0 mi Calm Calm - N/A   Overcast
8:53 PM 26.6 °F - 21.2 °F 80% 30.16 in 7.0 mi Calm Calm - N/A   Overcast
9:13 PM 24.8 °F 20.5 °F 21.2 °F 86% 30.16 in 7.0 mi ESE 3.5 mph - N/A   Overcast
9:33 PM 26.6 °F 22.6 °F 23.0 °F 86% 30.14 in 7.0 mi East 3.5 mph - N/A   Scattered Clouds
9:53 PM 26.6 °F 22.6 °F 21.2 °F 80% 30.14 in 7.0 mi SE 3.5 mph - N/A   Mostly Cloudy
10:13 PM 26.6 °F - 23.0 °F 86% 30.13 in 5.0 mi Calm Calm - N/A   Overcast
10:33 PM 26.6 °F - 23.0 °F 86% 30.13 in 7.0 mi Calm Calm - N/A   Scattered Clouds
10:53 PM 26.6 °F - 23.0 °F 86% 30.12 in 5.0 mi Calm Calm - N/A   Clear
11:13 PM 26.6 °F - 23.0 °F 86% 30.11 in 7.0 mi Calm Calm - N/A   Clear
11:33 PM 24.8 °F - 21.2 °F 86% 30.10 in 7.0 mi Calm Calm - N/A   Clear
11:53 PM 24.8 °F - 21.2 °F 86% 30.09 in 5.0 mi Calm Calm - N/A   Clear